Ketchikan, AK

4:22 PM AKDT on May 25, 2018 (GMT -0800)
Ketchikan International

Weather History for PAKT - May, 2018

Change the Weather History Date:

Thursday, May 24, 2018

  Actual Average Record
Temperature  
Mean Temperature 49 °F -  
Max Temperature 55 °F 56 °F 79 °F (1969)
Min Temperature 44 °F 42 °F 30 °F (1972)
Degree Days  
Heating Degree Days 16    
Moisture  
Dew Point 39 °F    
Average Humidity 67    
Maximum Humidity 93    
Minimum Humidity 44    
Precipitation  
Precipitation 0.00 in - - ()
Sea Level Pressure  
Sea Level Pressure 30.02 in    
Wind  
Wind Speed 7 mph (East)    
Max Wind Speed 18 mph    
Max Gust Speed 21 mph    
Visibility 10 miles    
Events      
Averages and records for this station are not official NWS values.
T = Trace of Precipitation, MM = Missing Value Source: NWS Daily Summary

Daily Weather History Graph

Daily Weather History Graph

Search for Another Location

Airport or City:

Astronomy

May. 24, 2018 Rise Set
Actual Time 4:22 AM AKDT 9:05 PM AKDT
Civil Twilight 3:30 AM AKDT 9:58 PM AKDT
Nautical Twilight 2:02 AM AKDT 11:28 PM AKDT
Astronomical Twilight Sun does not set Sun does not set
Moon 3:14 PM AKDT (5/24) 3:09 AM AKDT (5/24)
Length of Visible Light 18h 27m
Length of Day
16h 43m
Waxing Gibbous, 78% of the Moon is Illuminated
May 24
Waxing Gibbous
May 29
Full
Jun 6
Last Quarter
Jun 13
New
Jun 20
First Quarter

Hourly Weather History & Observations

Time (AKDT) Temp. Windchill Dew Point Humidity Pressure Visibility Wind Dir Wind Speed Gust Speed Precip Events Conditions
12:53 AM 48.0 °F - 45.0 °F 89% 29.95 in 10.0 mi WNW 5.8 mph - N/A   Overcast
1:53 AM 46.9 °F - 44.1 °F 90% 29.96 in 10.0 mi NW 5.8 mph - N/A   Overcast
2:53 AM 48.0 °F - 44.1 °F 86% 29.97 in 10.0 mi North 9.2 mph - N/A   Mostly Cloudy
3:53 AM 46.0 °F 43.1 °F 43.0 °F 89% 29.98 in 10.0 mi NW 5.8 mph - N/A   Mostly Cloudy
4:53 AM 45.0 °F - 42.1 °F 90% 29.99 in 10.0 mi Calm Calm - N/A   Overcast
5:45 AM 44.1 °F - 42.1 °F 93% 30.00 in 10.0 mi Calm Calm - N/A   Mostly Cloudy
5:53 AM 45.0 °F 43.5 °F 42.1 °F 90% 30.01 in 10.0 mi Variable 3.5 mph - N/A   Mostly Cloudy
6:10 AM 46.4 °F - 42.8 °F 87% 30.01 in 10.0 mi Calm Calm - N/A   Mostly Cloudy
6:17 AM 46.4 °F - 42.8 °F 87% 30.01 in 10.0 mi Calm Calm - N/A   Mostly Cloudy
6:53 AM 48.2 °F - 44.6 °F 87% 30.01 in 10.0 mi NNE 3.5 mph - N/A   Scattered Clouds
8:53 AM 51.8 °F - 41.0 °F 67% 30.03 in 10.0 mi Calm Calm - N/A   Mostly Cloudy
9:53 AM 51.8 °F - 42.8 °F 71% 30.04 in 10.0 mi SSE 8.1 mph - N/A   Mostly Cloudy
10:53 AM 51.8 °F - 42.8 °F 71% 30.05 in 10.0 mi ENE 8.1 mph - N/A   Overcast
11:53 AM 51.8 °F - 42.8 °F 71% 30.06 in 10.0 mi ENE 10.4 mph - N/A   Mostly Cloudy
12:53 PM 51.8 °F - 42.8 °F 71% 30.06 in 10.0 mi ENE 10.4 mph - N/A   Mostly Cloudy
1:53 PM 51.8 °F - 41.0 °F 67% 30.06 in 10.0 mi ENE 18.4 mph - N/A   Scattered Clouds
2:53 PM 53.6 °F - 39.2 °F 58% 30.07 in 10.0 mi ENE 13.8 mph 20.7 mph N/A   Scattered Clouds
3:23 PM 54.0 °F - 39.0 °F 57% 30.06 in 10.0 mi East 13.8 mph - N/A   Scattered Clouds
3:53 PM 54.0 °F - 39.0 °F 57% 30.06 in 10.0 mi East 17.3 mph - N/A   Scattered Clouds
4:53 PM 53.6 °F - 32.0 °F 44% 30.06 in 10.0 mi Variable 3.5 mph - N/A   Overcast
5:53 PM 53.6 °F - 32.0 °F 44% 30.05 in 10.0 mi SE 10.4 mph - N/A   Mostly Cloudy
6:53 PM 53.6 °F - 32.0 °F 44% 30.04 in 10.0 mi ESE 12.7 mph - N/A   Scattered Clouds
7:53 PM 51.8 °F - 32.0 °F 47% 30.02 in 10.0 mi SSE 6.9 mph - N/A   Overcast
8:53 PM 50.0 °F - 32.0 °F 50% 30.01 in 10.0 mi SE 6.9 mph - N/A   Mostly Cloudy
9:50 PM 50.0 °F - 32.0 °F 50% 30.00 in 10.0 mi SE 9.2 mph - N/A   Mostly Cloudy
9:53 PM 50.0 °F - 32.0 °F 50% 30.01 in 10.0 mi SE 10.4 mph - N/A   Overcast
10:22 PM 50.0 °F - 32.0 °F 50% 30.00 in 10.0 mi SE 10.4 mph - N/A   Overcast
10:53 PM 50.0 °F - 32.0 °F 50% 30.00 in 10.0 mi SSE 10.4 mph - N/A   Overcast
11:53 PM 50.0 °F - 32.0 °F 50% 29.99 in 10.0 mi SSE 5.8 mph - N/A   Overcast